Погода в Бахте

Погода в Бахте : погода сейчас, прогноз погоды и архив. Всё, что Вы хотите узнать о погоде в Бахте!

Поиск расширенной информации на нашем сайте:

Другие новости

Новости СМИ2

Главная страница сайта

Новости сайта

03.07.2017

Напоминаем, что на нашем специализированном сайте Метеоцентр.Азия вы можете получить высокодетализированные автоматические прогнозы погоды по пунктам России, СНГ и мира в авиационном формате (включающие направление и скорость ветра, видимость, явления погоды, количество и форму облачности, нижнюю и верхнюю границу облачности).


Погода в Бахте - сегодня

Время (UTC), дата Ветер
(°,м/с) 
Видим.   Явления Облачность Т
(°С)
Тd
(°С)
f(%) Тe
(°С)
Pmin
(гПа)
dP
(гПа)
Po
(мм)
O2
(г/м3)
Тmin Tmax R s Состояние
почвы
03 21.09.17 тихо ()   0500 м  туман  ?/?  
+3.9 +3.9 100 +4  1014.2  -0.7  756  300           
06 21.09.17 тихо ()   20000 м  {туман}  9/9 600 м 
[Sc]
+5.4 +4.9 97 +5  1013.4  -1.1  755  298           
09 21.09.17 тихо ()   20000 м    9/9 600 м 
[Sc]
+7.4 +5.1 85 +7  1011.1  -1.9  754  295           
12 21.09.17 тихо ()   20000 м    9/9 600 м 
[Sc]
+6.8 +5.5 91 +7  1010.1  -0.9  753  295    +7.4       
15 21.09.17 тихо ()   н/о    10/10 600 м 
[Sc]
+5.5 +4.6 94 +6  1009.3  -1  752  296           
18 21.09.17 тихо ()   н/о    10/10 600 м кучево-дожд. 
[Cb cap]
+5.2 +4 92 +5  1008.1  -1.2  752  297           
21 21.09.17 тихо ()   н/о    10/10 600 м кучево-дожд. 
[Cb cap]
+4.7 +4 95 +5  1007.3  -0.8  751  297           
00 22.09.17 тихо ()   20000 м    10/10 600 м кучево-дожд. 
[Cb cap]
+4.2 +3.2 93 +4  1007.4  0.1  751  298  +4.2         
03 22.09.17 020 (С) 20000 м    10/10 600 м кучево-дожд. 
[Cb cap]
+4.4 +3.4 93 +4  1008  0.6  751  297           
06 22.09.17 360 (С) 20000 м    10/10 600 м 
[Sc]
+5 +3.3 89 +5  1008.9  0.9  752  297           
09 22.09.17 360 (С) 20000 м    10/10 600 м 
[Sc]
+4.8 +1.2 77 +4  1010.3  1.4  753  298           
12 22.09.17 360 (С) 20000 м    10/10 600 м 
[Sc]
+3.8 +1.5 85 +3  1011.9  1.6  754  300    +5       
15 22.09.17 320 (СЗ) н/о    10/10 600 м 
[Sc]
+1.9 +0.6 91 +1  1013.3  1.3  755  302           
18 22.09.17 360 (С) н/о    10/10 600 м 
[Sc]
+1.4 +0.3 92 +1  1013.8  0.5  756  303           
21 22.09.17 360 (С) н/о    10/10 600 м 
[Sc]
+1.3 +0.8 96 +1  1014.7  0.9  756  303           
00 23.09.17 360 (С) 20000 м    10/10 600 м 
[Sc]
+1.4 +0.9 96 +1  1015.7  757  303  +1.3         
03 23.09.17 360 (С) 20000 м    10/0 средняя 
[As op]
+2.6 +1.3 91 +2    0.7  758  302           
06 23.09.17 360 (С) 20000 м    9/9 600 м 
[Sc]
+4.5 +2.3 86 +4  1016.7  0.4  758  300           
09 23.09.17 тихо ()   20000 м    6/6 1000 м 
[Sc]
+6.9 +3.6 79 +7  1016.8  0.2  758  297           
12 23.09.17 360 (С) 20000 м    8/8 600 м верхняя 
[Sc|Ci fib]
+5.5 +2.8 83 +5  1017.8  0.3  759  299    +6.9       
15 23.09.17 360 (С) н/о    10/10 600 м 
[Sc]
+3.2 +1.1 86 +3    0.8  771  307           
18 23.09.17 тихо ()   н/о    10/10 600 м 
[Sc]
+3 +0.9 86 +3  1019  0.4  760  303           
21 23.09.17 тихо ()   н/о    10/10 600 м 
[Sc]
+2.6 +1 89 +3  1019.9  0.9  760  303           
00 24.09.17 360 (С) 20000 м    8/8 600 м 
[Sc]
+1.5 -1.6 80 +1  1021  761  305  +1.5         
03 24.09.17 тихо ()   20000 м    6/6 600 м 
[Sc]
+3.9 -2.6 63 +4  1021.9  0.9  762  303           
Время (UTC), дата Ветер
(°,м/с) 
Видим.   Явления Облачность Т
(°С)
Тd
(°С)
f(%) Тe
(°С)
Pmin
(гПа)
dP
(гПа)
Po
(мм)
O2
(г/м3)
Тmin Tmax R s Состояние
почвы

Для получения пояснительной информации подведите курсор к названию столбца.

ПОГОДА в Бахте - архив

Всё, что Вы хотите узнать о погоде в Бахте - удобно и подробно!

Выберите нужную дату (начиная с 1 января 2015* года) и нажмите кнопку "Найти".
Будут отображены архивные сводки погоды по пункту Бахта, начиная с указанной даты.


Отображать данные в формате CSV (для использования в таблицах Excel)


Внимание! Наш архив погоды предназначен исключительно для личного некоммерческого использования в познавательных целях. Если Вам необходимы официальные справки о состоянии погоды (для производственных, юридических, коммерческих и т.п. целей), обращайтесь в органы Росгидромета.

*Примечание: данная дата относится к архиву по метеостанциям СССР (Россия, СНГ, Балтия).
Архив по метеостанциям Зарубежной Европы и Азии (кроме Китая) хранится 10 дней, по другим регионам земного шара (Китай, Африка, Америка, Австралия, Океания) - 1 день.

Бахта - район местоположения метеостанции


Название, широта, долгота, высота метеостанции:
Бахта 62.3°ш. 89.2°д. 58 м над ур. моря [Российская Федерация]

Дополнительная информация

В oтличие oт бoльшинства пoгoдных сайтoв мы публикуем пoдрoбную метеoинфoрмацию в детальнoм прoфессиoнальнoм фoрмате.

Характеристики температуры и влажнoсти вoздуха измеряются на высoте 2 м в тени вдали oт зданий и деревьев.
Скoрoсть ветра измеряется на высoте 10 м (на урoвне рoста челoвека скoрoсть ветра ниже в 1.5-2 раза). Если метеoстанция нахoдится в гoрoде или в лесу, тo скoрoсть ветра занижена на 2-4 м/с пo сравнению с oткрытым местoм. Скoрoсть ветра над акватoриями крупных рек и oзёр, а также на вершинах хoлмoв на 2-5 м/с выше, чем в oбычных услoвиях.
Атмoсфернoе давление в разных тoчках местнoсти мoжет значительнo oтличаться oт давления на метеoстанции, в зависимoсти oт услoвий рельефа (при пoдъёме на 10 м давление пoнижается примернo на 1 мм рт.ст.).